Regional Weather Roundup
Issued by NWS Grand Forks, ND

Home | Current Version | Previous Version | Text Only | Print | Product List | Glossary Off
Versions: 1 2 3 4 5 6 7 8 9 10 11 12 13 14 15 16 17 18 19 20 21 22 23 24 25 26 27 28 29 30 31 32 33 34 35 36 37 38 39 40 41 42 43 44 45 46 47 48 49 50

000
ASUS43 KFGF 252231
RWRFGF
PRAIRIE TO PINES  WEATHER ROUNDUP
NATIONAL WEATHER SERVICE EASTERN NORTH DAKOTA/GRAND FORKS ND
500 PM CDT SUN SEP 25 2016

 **SATELLITE DATA USED TO AUGMENT SKY COVER AT AUTOMATED STATIONS**
 *****  WEATHER ACROSS EASTERN NORTH DAKOTA  *****

CITY           SKY/WX    TMP DP  RH WIND       PRES   REMARKS
GRAND FORKS    LGT RAIN  53  48  83 NW18G25   29.88R
GRAND FRKS AFB LGT RAIN  55  46  73 NW16G24   29.89R
DEVILS LAKE    CLOUDY    59  41  51 NW30G37   29.94R
FARGO          CLOUDY    61  42  49 NW28G37   29.92R
WAHPETON ARPT  MOCLDY    61  41  48 NW18G26   29.95R
$$

 ***** WEATHER ACROSS CENTRAL AND WESTERN NORTH DAKOTA  *****

CITY           SKY/WX    TMP DP  RH WIND       PRES   REMARKS
BISMARCK       MOSUNNY   63  32  31 NW24G37   30.12S
MINOT          SUNNY     63  35  35 NW31G43   30.06R
JAMESTOWN      PTSUNNY   62  36  37 NW35G45   29.98S
MINOT AFB      SUNNY     62  35  36 NW35G46   30.03R
GARRISON         N/A     62  33  33 NW30G46   30.09R
WILLISTON      SUNNY     64  32  30 NW20G35   30.18F
DICKINSON      MOSUNNY   61  29  29 NW22G36   30.18S
HETTINGER      MOSUNNY   63  33  32 NW29G38   30.23S
$$

 *****  OTHER AIRPORT OBSERVATIONS IN OUR AREA  *****

CITY           SKY/WX    TMP DP  RH WIND       PRES   REMARKS
WALHALLA       FAIR      52  48  87 NW13G22   29.87R
GRAFTON AIRPOR RAIN      52  52 100 W23G33    29.89R
VALLEY CITY AR LGT RAIN  59  37  44 NW22G40   29.99R
CANDO          MOCLDY    59  39  47 NW28G39   29.96S
CAVALIER APRT  RAIN      50  48  93 NW16G26   29.87R
GWINNER        FAIR      63  37  39 W24G37    30.00R
SHEYENNE NWR     N/A     63  38  39 NW21      29.95S
ROLLA          MOCLDY    57  37  47 NW29G44   29.96R
 ***** THE ABOVE OBSERVATIONS ARE NON NWS ARE NOT QUALITY
       CONTROLLED AND MAY MIS-REPORT RAIN FOR SNOW...
$$

  *****  WEATHER ACROSS NORTHERN MINNESOTA  *****

CITY           SKY/WX    TMP DP  RH WIND       PRES   REMARKS
FLAG ISLAND    LGT RAIN  55  54  94 W13       29.64R
WARROAD        DRIZZLE   54  50  87 W12       29.70R
ROSEAU         CLOUDY    54  48  82 W13G21    29.72S HAZE
HALLOCK        RAIN      52  52 100 W18G25    29.81R
THF RVR FALLS  LGT RAIN  51  49  92 W26G33    29.82R FOG
BAUDETTE       CLOUDY    56  53  90 W16G23    29.67R
WASKISH        CLOUDY    55  52  88 W18G29      N/A
CROOKSTON      HVY RAIN  50  50 100 NW26G36   29.88R
STEPHEN NDAWN    N/A     52  50  93 W21         N/A
GREENBUSH NDAW   N/A     52  52 100 W16         N/A
$$
  *****  WEATHER ACROSS CENTRAL AND WEST MINNESOTA  *****

CITY           SKY/WX    TMP DP  RH WIND       PRES   REMARKS
FOSSTON        LGT RAIN  48  48 100 W20G32    29.85R
BEMIDJI        CLOUDY    52  49  90 W16G25    29.80R FOG
PARK RAPIDS    LGT RAIN  54  49  83 W23G32    29.86R
ELBOW LAKE     CLOUDY    59  46  61 NW14G22   29.94S
WADENA         NOT AVBL
DETROIT LAKES  DRIZZLE   52  48  87 NW25G35   29.92R
MOORHEAD       CLOUDY    59  43  55 NW18G33   29.93R
FERGUS FALLS   LGT RAIN  57  46  67 NW20G28   29.95R
MORRIS MN      MOSUNNY   64  43  45 NW29G36   29.93F
STAPLES        CLOUDY    55  48  76 NW18G28   29.88R
$$
  *****  WEATHER ELSEWHERE ACROSS MINNESOTA  *****

CITY           SKY/WX    TMP DP  RH WIND       PRES   REMARKS
DULUTH         CLOUDY    60  53  77 W13G22    29.77F
INTRNTL FALLS  CLOUDY    58  53  84 SW10      29.67S
ELY            CLOUDY    59  50  72 SW7       29.72S
CLOQUET        CLOUDY    59  52  77 W10       29.78S
WHEATON        MOSUNNY   66  45  45 W22G32    29.97S
BRAINERD       LGT RAIN  55  52  89 W21G32    29.85R FOG
HIBBING        CLOUDY    57  52  83 SW8G17    29.74F
ALEXANDRIA     CLOUDY    58  47  66 NW20G33   29.93R
SAINT CLOUD    CLOUDY    59  52  77 W16       29.89R
MINNEAPOLIS    CLOUDY    61  53  75 W12G21    29.90S
$$

  *****  WEATHER ACROSS SOUTH DAKOTA  *****

CITY           SKY/WX    TMP DP  RH WIND       PRES   REMARKS
SIOUX FALLS    MOSUNNY   65  42  43 NW18G31   30.07R
BROOKINGS      MOSUNNY   63  41  44 NW23G35   30.04R
WATERTOWN      MOSUNNY   60  39  45 NW24G33   30.03R
HURON          MOSUNNY   66  36  32 NW28G38   30.08S
SISSETON         N/A     65  37  35 NW24G41   29.96S
ABERDEEN       SUNNY     66  34  30 NW28G37   30.06R
MITCHELL       SUNNY     68  32  26 NW18G36   30.12R
PIERRE         SUNNY     67  28  23 NW26G38   30.16S
MOBRIDGE       SUNNY     66  30  26 NW25G39   30.11F
RAPID CITY     SUNNY     65  30  27 NW24G30   30.29F
$$

  *****  SOME WEATHER IN NEARBY STATES *****

CITY           SKY/WX    TMP DP  RH WIND       PRES   REMARKS
GLASGOW MT     SUNNY     66  38  35 W14G26    30.23F
GREAT FALLS MT SUNNY     69  34  27 SW18      30.27S
CHEYENNE WY    SUNNY     63  29  27 NW13G24   30.39S
SCOTTSBLUFF NE SUNNY     67  36  31 NW16G25   30.35S
OMAHA NE       PTSUNNY   69  48  47 NW14      30.11S
DES MOINES IA  CLOUDY    68  50  52 NW17      30.05R
DAVENPORT IA   CLOUDY    73  61  65 W18G29    29.96R
CHICAGO IL     PTSUNNY   84  67  56 S14       29.88F
EAU CLAIRE WI  CLOUDY    64  52  64 W18G30    29.88R
LA CROSSE WI   CLOUDY    69  54  58 W7G20     29.90R
$$

  *****  SOME NATIONAL WEATHER *****

CITY           SKY/WX    TMP DP  RH WIND       PRES   REMARKS
LA GUARDIA NY  PTCLDY    70  33  25 W9        30.12S
RALEIGH NC     CLOUDY    72  66  81 E6        30.11F
ATLANTA GA     MOSUNNY   90  61  37 S8        30.02F HX  90
NEW ORLEANS LA PTSUNNY   92  71  50 VRB5      29.95S HX  98
OKLAHOMA CITY  CLOUDY    65  56  72 N17       30.15R
ALBUQUERQUE NM MOSUNNY   73  34  23 SE21G29   30.30S
SALT LAKE CITY SUNNY     67  41  38 NW13      30.42F
LOS ANGELES CA SUNNY     83  50  31 W12       29.92F
BOISE ID       SUNNY     73  32  22 VRB6      30.40F
SEATTLE WA     PTSUNNY   74  48  39 NW8       30.37F
$$

*** WEATHER ACROSS MANITOBA...SASKATCHEWAN AND ONTARIO ***
                ***ONTARIO***

CITY           SKY/WX    TMP DP  RH WIND       PRES   REMARKS
GERALDTON      LGT RAIN  55  54  94 SE9G18    29.82F FOG
THUNDER BAY    PTSUNNY   64  63  94 S12       29.70F
SIOUX LOOKOUT  LGT RAIN  59  59 100 SW7G18    29.60S FOG
TORONTO        PTSUNNY   59  39  47 SE7       30.17R
BIG TROUT LK   RAIN      57  55  94 SE15      29.68S
PICKLE LAKE    LGT RAIN  59  57  94 SE15G22   29.65F FOG
DRYDEN         CLOUDY    59  54  82 SW14G22   29.61R
KENORA         PTSUNNY   57  52  82 SW14G23   29.61S
$$
                *** MANITOBA***

CITY           SKY/WX    TMP DP  RH WIND       PRES   REMARKS
BRANDON        PTSUNNY   59  41  51 NW30G39   29.92R
DAUPHIN        MOSUNNY   59  41  51 NW23G33   29.88R
ISLAND LAKE    NOT AVBL
PILOT MOUND      N/A     54  45  71 NW21G26     N/A
THE PAS        PTSUNNY   59  41  51 NW25G35   29.84R
THOMPSON       LGT RAIN  50  48  93 NW9G20    29.68R
WINNIPEG       LGT RAIN  52  50  93 NW31G43   29.77R
LYNN LAKE      CLOUDY    50  46  87 NW12G21   29.80R
CHURCHILL      LGT RAIN  46  46 100 SE9       29.60F FOG
GILLAM         DRIZZLE   54  54 100 NW6       29.56S FOG
$$
                ***SASKATCHEWAN***

CITY           SKY/WX    TMP DP  RH WIND       PRES   REMARKS
ESTEVAN        MOSUNNY   63  34  34 NW28G41   30.11
KINDERSLEY     SUNNY     64  30  27 W12G21    30.18S
LLOYDMINSTER   MOSUNNY   61  32  33 NW10G18   30.15S
PRINCE ALBERT  MOSUNNY   63  28  27 NW23G32   30.05S
REGINA         MOSUNNY   61  34  36 NW24G32   30.14R
YORKTON        SUNNY     61  32  33 NW26G36   30.00R
N. BATTLEFORD  SUNNY     63  27  25 NW14G20   30.15F
LA RONGE       MOSUNNY   57  37  47 NW21G29   30.00R
SASKATOON      MOSUNNY   63  30  29 NW22      30.14S
SWIFT CURRENT  SUNNY     63  28  27 NW17      30.19F
$$
NOTE: THESE ARE AUTOMATED STATIONS WITH LIMITED QUALITY CONTROL
      "FAIR" INDICATES FEW OR NO CLOUDS BELOW 12,000 FEET WITH NO
      SIGNIFICANT WEATHER AND/OR OBSTRUCTIONS TO VISIBILITY.
      SKY/WX - SKY CONDITION AND SIGNIFICANT WEATHER.
      TMP - AIR TEMPERATURE.    DP   - DEWPOINT TEMPERATURE.
      RH  - RELATIVE HUMIDITY.  PRES - PRESSURE.
      HX  - HEAT INDEX.         WCI  - WIND CHILL INDEX.
$




USA.gov is the U.S. government's official web portal to all federal, state and local government web resources and services.